Home   Weather   Oakland   Past weeks
Flag for USA

Past Weather in Oakland, California, USA — Yesterday and Last 2 Weeks

Now
62 °F

Clear.


Feels Like: 62 °F
Forecast: 81 / 55 °F
Wind: No wind

Location: Metro Oakland International Airport

Current Time: Oct 22, 2019 at 11:17:38 pm

Latest Report: Oct 22, 2019 at 9:53 pm


Visibility: 10 mi

Pressure: 30.05 "Hg

Humidity: 54%

Dew Point: 45 °F

Location of OaklandLocation

Past Weather in Oakland — Graph

°F

Oakland Temperature Yesterday

Maximum temperature yesterday: 78 °F (at 2:53 pm)
Minimum temperature yesterday: 50 °F (at 4:53 am)
Average temperature yesterday: 63 °F

High & Low Weather Summary for the Past Weeks

 TemperatureHumidityPressure
High82 °F (Oct 22, 2:53 pm)100% (Oct 20, 7:53 am)30.21 "Hg (Oct 20, 7:53 am)
Low45 °F (Oct 15, 4:53 am)9% (Oct 10, 12:53 pm)29.82 "Hg (Oct 8, 5:53 pm)
Average60 °F65%30.00 "Hg
* Reported Oct 7 9:53 pm — Oct 22 9:53 pm, Oakland. Weather by CustomWeather, © 2019

Note: Actual official high and low records may vary slightly from our data, if they occured in-between our weather recording intervals... More about our weather records

Advertising

Oakland Weather History for the Previous 24 Hours

Scroll right to see more
 ConditionsComfort  
Time TempWeatherWind HumidityBarometerVisibility
9:53 pm
Tue, Oct 22
62 °FClear.No wind54%30.05 "Hg10 mi
8:53 pm64 °FClear.No wind50%30.06 "Hg10 mi
7:53 pm71 °FPassing clouds.3 mph39%30.06 "Hg10 mi
6:53 pm73 °FPassing clouds.6 mph36%30.05 "Hg10 mi
5:53 pm77 °FPassing clouds.8 mph35%30.05 "Hg10 mi
4:53 pm80 °FPassing clouds.9 mph34%30.07 "Hg10 mi
3:53 pm80 °FPassing clouds.9 mph38%30.08 "Hg10 mi
2:53 pm82 °FPassing clouds.10 mph28%30.10 "Hg10 mi
1:53 pm81 °FPassing clouds.9 mph29%30.13 "Hg10 mi
12:53 pm79 °FPassing clouds.9 mph31%30.16 "Hg10 mi
11:53 am76 °FPassing clouds.12 mph35%30.18 "Hg10 mi
10:53 am71 °FPassing clouds.7 mph55%30.19 "Hg10 mi
9:53 am67 °FPassing clouds.6 mph57%30.21 "Hg10 mi
8:53 am64 °FPassing clouds.No wind65%30.20 "Hg10 mi
7:53 am54 °FPassing clouds.No wind74%30.19 "Hg10 mi
6:53 am53 °FClear.3 mph74%30.19 "Hg10 mi
5:53 am54 °FClear.No wind72%30.19 "Hg10 mi
4:53 am54 °FClear.No wind72%30.17 "Hg10 mi
3:53 am56 °FClear.No wind75%30.18 "Hg10 mi
2:53 am54 °FClear.5 mph77%30.17 "Hg10 mi
1:53 am56 °FClear.No wind72%30.17 "Hg10 mi
12:53 am57 °FClear.No wind78%30.17 "Hg10 mi
11:53 pm
Mon, Oct 21
58 °FClear.3 mph81%30.17 "Hg10 mi
Weather by CustomWeather, © 2019

See weather overview